{"data":{"norad_id":61061,"epoch":"2026-05-25T03:13:38.933760Z","epoch_age_seconds":73985,"freshness":"FRESH","line1":"1 61061U 24164M   26145.13447840  .00001583  00000+0  17921-4 0  9990","line2":"2 61061  53.1582 294.5499 0000965  76.6537 283.4588 15.69711776 97426","mean_motion":15.69711776,"eccentricity":9.65e-5,"inclination_deg":53.1582,"raan_deg":294.5499,"arg_perigee_deg":76.6537,"mean_anomaly_deg":283.4588,"bstar":1.7921e-5,"rev_number":9742,"period_min":91.736586424131,"perigee_km":359.07146483091,"apogee_km":360.37187155387,"semimajor_km":6737.8586681924,"source":"CELESTRAK","updated_at":"2026-05-25T13:38:19.355698Z"}}